| time (UTC) | temp C | wind direction | speed KPH | gust KPH | rain 1hr cm | rain 24hr cm | rain mn cm | humidity % | barometer mb |
| 20260905042503 | 21 | 149 | 14.5 | 22.5 | 0.00 | 0.00 | 0.00 | 50 | 1018.6 |
| 20260905042004 | 21 | 146 | 14.5 | 22.5 | 0.00 | 0.00 | 0.00 | 50 | 1018.5 |
| 20260905041504 | 21 | 161 | 12.9 | 22.5 | 0.00 | 0.00 | 0.00 | 50 | 1018.5 |
| 20260905041004 | 21 | 171 | 14.5 | 19.3 | 0.00 | 0.00 | 0.00 | 49 | 1018.4 |
| 20260905040503 | 21 | 140 | 14.5 | 19.3 | 0.00 | 0.00 | 0.00 | 49 | 1018.5 |
| 20260905040007 | 21 | 147 | 14.5 | 22.5 | 0.00 | 0.00 | 0.00 | 49 | 1018.5 |
| 20260905040002 | 21 | 147 | 12.9 | 22.5 | 0.00 | 0.00 | 0.00 | 49 | 1000.9 |
| 20260905035504 | 21 | 162 | 16.1 | 19.3 | 0.00 | 0.00 | 0.00 | 48 | 1018.5 |
| 20260905035004 | 21 | 175 | 16.1 | 25.7 | 0.00 | 0.00 | 0.00 | 48 | 1018.6 |
| 20260905034503 | 22 | 172 | 16.1 | 25.7 | 0.00 | 0.00 | 0.00 | 47 | 1018.5 |
| 20260905033504 | 22 | 154 | 16.1 | 30.6 | 0.00 | 0.00 | 0.00 | 47 | 1018.5 |
| 20260905033004 | 22 | 156 | 16.1 | 24.1 | 0.00 | 0.00 | 0.00 | 47 | 1018.5 |
| 20260905033002 | 22 | 156 | 14.5 | 24.1 | 0.00 | 0.00 | 0.00 | 47 | 1000.9 |
| 20260905032506 | 22 | 162 | 16.1 | 25.7 | 0.00 | 0.00 | 0.00 | 47 | 1018.4 |
| 20260905032004 | 22 | 153 | 12.9 | 19.3 | 0.00 | 0.00 | 0.00 | 47 | 1018.4 |
| 20260905031508 | 22 | 151 | 11.3 | 17.7 | 0.00 | 0.00 | 0.00 | 47 | 1000.8 |
| 20260905031506 | 22 | 151 | 12.9 | 17.7 | 0.00 | 0.00 | 0.00 | 47 | 1018.4 |
| 20260905031006 | 22 | 160 | 6.4 | 14.5 | 0.00 | 0.00 | 0.00 | 48 | 1018.4 |
| 20260905030505 | 22 | 148 | 6.4 | 22.5 | 0.00 | 0.00 | 0.00 | 47 | 1018.4 |
| 20260905030008 | 22 | 154 | 12.9 | 30.6 | 0.00 | 0.00 | 0.00 | 45 | 1018.4 |
| 20260905030004 | 22 | 154 | 11.3 | 30.6 | 0.00 | 0.00 | 0.00 | 45 | 1000.8 |
| 20260905025006 | 23 | 167 | 19.3 | 27.4 | 0.00 | 0.00 | 0.00 | 41 | 1018.3 |
| 20260905024506 | 23 | 136 | 6.4 | 22.5 | 0.00 | 0.00 | 0.00 | 39 | 1018.4 |
| 20260905024504 | 23 | 136 | 4.8 | 22.5 | 0.00 | 0.00 | 0.00 | 39 | 1000.9 |
| 20260905024006 | 23 | 155 | 14.5 | 25.7 | 0.00 | 0.00 | 0.00 | 37 | 1018.4 |
| 20260905023505 | 23 | 148 | 12.9 | 17.7 | 0.00 | 0.00 | 0.00 | 38 | 1018.2 |
| 20260905023006 | 23 | 148 | 12.9 | 22.5 | 0.00 | 0.00 | 0.00 | 38 | 1018.2 |
| 20260905023004 | 23 | 148 | 11.3 | 22.5 | 0.00 | 0.00 | 0.00 | 38 | 1000.7 |
| 20260905022506 | 24 | 151 | 11.3 | 27.4 | 0.00 | 0.00 | 0.00 | 37 | 1018.2 |
| 20260905021506 | 23 | 157 | 9.7 | 16.1 | 0.00 | 0.00 | 0.00 | 39 | 1018.4 |
| 20260905021504 | 23 | 157 | 9.7 | 16.1 | 0.00 | 0.00 | 0.00 | 39 | 1000.8 |
| 20260905021006 | 22 | 177 | 4.8 | 9.7 | 0.00 | 0.00 | 0.00 | 38 | 1018.2 |
| 20260905020505 | 22 | 28 | 0.0 | 1.6 | 0.00 | 0.00 | 0.00 | 40 | 1018.1 |
| 20260905020010 | 22 | 28 | 0.0 | 1.6 | 0.00 | 0.00 | 0.00 | 45 | 1000.5 |
| 20260905020006 | 22 | 28 | 0.0 | 1.6 | 0.00 | 0.00 | 0.00 | 45 | 1018.0 |
| 20260905015505 | 23 | 28 | 0.0 | 4.8 | 0.00 | 0.00 | 0.00 | 44 | 1017.9 |
| 20260905015007 | 23 | 28 | 1.6 | 4.8 | 0.00 | 0.00 | 0.00 | 39 | 1017.8 |
| 20260905014505 | 23 | 28 | 3.2 | 6.4 | 0.00 | 0.00 | 0.00 | 39 | 1017.8 |
| 20260905013959 | 24 | 28 | 3.2 | 6.4 | 0.00 | 0.00 | 0.00 | 36 | 1017.8 |
| 20260905013007 | 24 | 163 | 6.4 | 11.3 | 0.00 | 0.00 | 0.00 | 34 | 1017.6 |
| 20260905013004 | 24 | 163 | 4.8 | 11.3 | 0.00 | 0.00 | 0.00 | 34 | 1000.1 |
| 20260905012506 | 24 | 150 | 6.4 | 12.9 | 0.00 | 0.00 | 0.00 | 34 | 1017.4 |
| 20260905012008 | 24 | 136 | 8.0 | 12.9 | 0.00 | 0.00 | 0.00 | 35 | 1017.2 |
| 20260905011511 | 23 | 133 | 8.0 | 12.9 | 0.00 | 0.00 | 0.00 | 35 | 999.6 |
| 20260905011007 | 24 | 130 | 9.7 | 12.9 | 0.00 | 0.00 | 0.00 | 35 | 1017.2 |
| 20260905010505 | 24 | 131 | 6.4 | 14.5 | 0.00 | 0.00 | 0.00 | 36 | 1017.2 |
| 20260905010008 | 24 | 139 | 9.7 | 17.7 | 0.00 | 0.00 | 0.00 | 35 | 1017.0 |
| 20260905010004 | 24 | 139 | 9.7 | 17.7 | 0.00 | 0.00 | 0.00 | 35 | 999.6 |
| 20260905005505 | 25 | 126 | 11.3 | 19.3 | 0.00 | 0.00 | 0.00 | 34 | 1017.0 |
| 20260905005008 | 25 | 124 | 14.5 | 20.9 | 0.00 | 0.00 | 0.00 | 32 | 1016.9 |
| 20260905004503 | 25 | 133 | 11.3 | 20.9 | 0.00 | 0.00 | 0.00 | 32 | 999.4 |
| 20260905004006 | 25 | 116 | 12.9 | 19.3 | 0.00 | 0.00 | 0.00 | 32 | 1016.9 |
| 20260905003506 | 26 | 125 | 11.3 | 19.3 | 0.00 | 0.00 | 0.00 | 31 | 1016.9 |
| 20260905003006 | 26 | 126 | 11.3 | 19.3 | 0.00 | 0.00 | 0.00 | 31 | 1017.0 |
| 20260905002004 | 26 | 101 | 12.9 | 20.9 | 0.00 | 0.00 | 0.00 | 30 | 1016.8 |
| 20260905001506 | 27 | 124 | 16.1 | 24.1 | 0.00 | 0.00 | 0.00 | 29 | 1016.8 |
| 20260905001504 | 27 | 124 | 14.5 | 24.1 | 0.00 | 0.00 | 0.00 | 29 | 999.4 |
| 20260905001007 | 27 | 98 | 16.1 | 30.6 | 0.00 | 0.00 | 0.00 | 29 | 1016.8 |
| 20260905000008 | 28 | 112 | 20.9 | 32.2 | 0.00 | 0.00 | 0.00 | 27 | 1016.7 |
| 20260905000005 | 28 | 112 | 19.3 | 32.2 | 0.00 | 0.00 | 0.00 | 27 | 999.2 |
| 20260904235005 | 28 | 91 | 17.7 | 22.5 | 0.00 | 0.00 | 0.00 | 27 | 1016.6 |
| 20260904234511 | 28 | 136 | 12.9 | 27.4 | 0.00 | 0.00 | 0.00 | 27 | 999.2 |
| 20260904234506 | 28 | 136 | 14.5 | 27.4 | 0.00 | 0.00 | 0.00 | 27 | 1016.7 |
| 20260904234006 | 28 | 98 | 20.9 | 27.4 | 0.00 | 0.00 | 0.00 | 26 | 1016.7 |
| 20260904233008 | 27 | 134 | 19.3 | 29.0 | 0.00 | 0.00 | 0.00 | 27 | 1016.7 |
| 20260904233004 | 27 | 134 | 19.3 | 29.0 | 0.00 | 0.00 | 0.00 | 27 | 999.3 |
| 20260904232006 | 28 | 132 | 19.3 | 27.4 | 0.00 | 0.00 | 0.00 | 26 | 1016.7 |
| 20260904231505 | 29 | 136 | 19.3 | 27.4 | 0.00 | 0.00 | 0.00 | 24 | 1016.5 |
| 20260904231503 | 29 | 136 | 17.7 | 27.4 | 0.00 | 0.00 | 0.00 | 24 | 999.1 |
| 20260904231006 | 29 | 138 | 16.1 | 22.5 | 0.00 | 0.00 | 0.00 | 25 | 1016.5 |
| 20260904230459 | 29 | 128 | 14.5 | 25.7 | 0.00 | 0.00 | 0.00 | 25 | 1016.6 |
| 20260904230107 | 29 | 119 | 16.1 | 25.7 | 0.00 | 0.00 | 0.00 | 25 | 999.1 |
| 20260904230000 | 29 | 112 | 17.7 | 25.7 | 0.00 | 0.00 | 0.00 | 24 | 1016.6 |
| 20260904225505 | 29 | 117 | 17.7 | 25.7 | 0.00 | 0.00 | 0.00 | 24 | 1016.5 |
| 20260904224506 | 30 | 112 | 16.1 | 25.7 | 0.00 | 0.00 | 0.00 | 25 | 1016.6 |
| 20260904224006 | 30 | 192 | 11.3 | 24.1 | 0.00 | 0.00 | 0.00 | 24 | 1016.6 |
| 20260904223507 | 30 | 117 | 14.5 | 27.4 | 0.00 | 0.00 | 0.00 | 25 | 1016.6 |
| 20260904223007 | 30 | 121 | 19.3 | 27.4 | 0.00 | 0.00 | 0.00 | 25 | 1016.5 |
| 20260904223004 | 30 | 121 | 17.7 | 27.4 | 0.00 | 0.00 | 0.00 | 25 | 999.1 |
| 20260904222506 | 30 | 95 | 19.3 | 27.4 | 0.00 | 0.00 | 0.00 | 26 | 1016.5 |
| 20260904222006 | 29 | 111 | 16.1 | 30.6 | 0.00 | 0.00 | 0.00 | 24 | 1016.7 |
| 20260904221506 | 29 | 111 | 20.9 | 30.6 | 0.00 | 0.00 | 0.00 | 25 | 1016.8 |
| 20260904221006 | 29 | 91 | 17.7 | 25.7 | 0.00 | 0.00 | 0.00 | 24 | 1016.7 |
| 20260904220505 | 29 | 123 | 20.9 | 25.7 | 0.00 | 0.00 | 0.00 | 24 | 1016.7 |
| 20260904220009 | 29 | 83 | 17.7 | 25.7 | 0.00 | 0.00 | 0.00 | 25 | 1016.7 |
| 20260904220004 | 29 | 83 | 16.1 | 25.7 | 0.00 | 0.00 | 0.00 | 25 | 999.3 |
| 20260904215506 | 29 | 128 | 16.1 | 25.7 | 0.00 | 0.00 | 0.00 | 25 | 1016.9 |
| 20260904215006 | 30 | 118 | 14.5 | 24.1 | 0.00 | 0.00 | 0.00 | 24 | 1016.9 |
| 20260904214506 | 30 | 150 | 12.9 | 27.4 | 0.00 | 0.00 | 0.00 | 24 | 1016.9 |
| 20260904214000 | 30 | 151 | 16.1 | 27.4 | 0.00 | 0.00 | 0.00 | 26 | 1017.0 |
| 20260904213506 | 29 | 144 | 11.3 | 22.5 | 0.00 | 0.00 | 0.00 | 26 | 1016.9 |
| 20260904213006 | 29 | 106 | 11.3 | 20.9 | 0.00 | 0.00 | 0.00 | 25 | 1017.0 |
| 20260904213004 | 29 | 106 | 11.3 | 20.9 | 0.00 | 0.00 | 0.00 | 25 | 999.7 |
| 20260904212506 | 29 | 165 | 14.5 | 20.9 | 0.00 | 0.00 | 0.00 | 24 | 1017.0 |
| 20260904211506 | 30 | 128 | 12.9 | 19.3 | 0.00 | 0.00 | 0.00 | 24 | 1017.1 |
| 20260904211503 | 30 | 128 | 11.3 | 19.3 | 0.00 | 0.00 | 0.00 | 24 | 999.8 |
| 20260904211007 | 29 | 132 | 8.0 | 17.7 | 0.00 | 0.00 | 0.00 | 25 | 1017.2 |
| 20260904210007 | 29 | 130 | 12.9 | 20.9 | 0.00 | 0.00 | 0.00 | 23 | 1017.3 |
| 20260904210004 | 29 | 130 | 11.3 | 20.9 | 0.00 | 0.00 | 0.00 | 23 | 999.9 |
| 20260904205506 | 30 | 80 | 14.5 | 24.1 | 0.00 | 0.00 | 0.00 | 23 | 1017.3 |
| 20260904204503 | 30 | 116 | 17.7 | 24.1 | 0.00 | 0.00 | 0.00 | 22 | 1000.1 |
| 20260904203505 | 29 | 109 | 9.7 | 25.7 | 0.00 | 0.00 | 0.00 | 23 | 1017.6 |
| 20260904203009 | 29 | 119 | 19.3 | 29.0 | 0.00 | 0.00 | 0.00 | 22 | 1000.3 |
| 20260904203006 | 29 | 130 | 19.3 | 29.0 | 0.00 | 0.00 | 0.00 | 22 | 1017.6 |
| 20260904202506 | 29 | 159 | 20.9 | 29.0 | 0.00 | 0.00 | 0.00 | 23 | 1017.5 |
| 20260904201507 | 28 | 146 | 16.1 | 20.9 | 0.00 | 0.00 | 0.00 | 25 | 1017.6 |
| 20260904201504 | 28 | 146 | 16.1 | 20.9 | 0.00 | 0.00 | 0.00 | 25 | 1000.3 |
| 20260904201006 | 29 | 102 | 8.0 | 17.7 | 0.00 | 0.00 | 0.00 | 23 | 1017.7 |
| 20260904200008 | 29 | 166 | 8.0 | 14.5 | 0.00 | 0.00 | 0.00 | 22 | 1017.8 |
| 20260904200006 | 29 | 166 | 6.4 | 14.5 | 0.00 | 0.00 | 0.00 | 22 | 1000.5 |
| 20260904195006 | 28 | 5 | 4.8 | 11.3 | 0.00 | 0.00 | 0.00 | 23 | 1017.9 |
| 20260904194505 | 28 | 237 | 6.4 | 12.9 | 0.00 | 0.00 | 0.00 | 23 | 1017.9 |
| 20260904194503 | 28 | 237 | 6.4 | 12.9 | 0.00 | 0.00 | 0.00 | 23 | 1000.6 |
| 20260904194006 | 28 | 283 | 6.4 | 17.7 | 0.00 | 0.00 | 0.00 | 24 | 1017.9 |
| 20260904193506 | 29 | 186 | 9.7 | 22.5 | 0.00 | 0.00 | 0.00 | 22 | 1018.0 |
| 20260904193008 | 30 | 284 | 12.9 | 22.5 | 0.00 | 0.00 | 0.00 | 22 | 1000.6 |
| 20260904193006 | 30 | 284 | 12.9 | 22.5 | 0.00 | 0.00 | 0.00 | 22 | 1017.9 |
| 20260904192506 | 30 | 213 | 8.0 | 17.7 | 0.00 | 0.00 | 0.00 | 22 | 1018.0 |
| 20260904192011 | 29 | 245 | 6.4 | 16.1 | 0.00 | 0.00 | 0.00 | 23 | 1018.0 |
| 20260904191505 | 28 | 236 | 6.4 | 12.9 | 0.00 | 0.00 | 0.00 | 24 | 1018.0 |
| 20260904190010 | 28 | 150 | 9.7 | 29.0 | 0.00 | 0.00 | 0.00 | 23 | 1001.1 |
| 20260904190007 | 28 | 150 | 9.7 | 29.0 | 0.00 | 0.00 | 0.00 | 23 | 1018.3 |
| 20260904185506 | 28 | 190 | 4.8 | 19.3 | 0.00 | 0.00 | 0.00 | 24 | 1018.4 |
| 20260904185006 | 28 | 276 | 8.0 | 16.1 | 0.00 | 0.00 | 0.00 | 23 | 1018.4 |
| 20260904184505 | 28 | 281 | 4.8 | 19.3 | 0.00 | 0.00 | 0.00 | 25 | 1018.4 |
| 20260904184503 | 28 | 281 | 4.8 | 19.3 | 0.00 | 0.00 | 0.00 | 25 | 1001.2 |
| 20260904184006 | 28 | 156 | 12.9 | 19.3 | 0.00 | 0.00 | 0.00 | 23 | 1018.4 |
| 20260904183506 | 28 | 194 | 11.3 | 17.7 | 0.00 | 0.00 | 0.00 | 23 | 1018.4 |
| 20260904183004 | 28 | 255 | 8.0 | 16.1 | 0.00 | 0.00 | 0.00 | 23 | 1001.3 |
| 20260904182006 | 28 | 190 | 9.7 | 20.9 | 0.00 | 0.00 | 0.00 | 22 | 1018.6 |
| 20260904181505 | 28 | 257 | 8.0 | 17.7 | 0.00 | 0.00 | 0.00 | 22 | 1018.7 |
| 20260904181503 | 28 | 257 | 6.4 | 17.7 | 0.00 | 0.00 | 0.00 | 22 | 1001.6 |
| 20260904181007 | 28 | 238 | 6.4 | 27.4 | 0.00 | 0.00 | 0.00 | 23 | 1018.8 |
| 20260904180006 | 27 | 245 | 4.8 | 20.9 | 0.00 | 0.00 | 0.00 | 24 | 1001.8 |
| 20260904175505 | 27 | 216 | 9.7 | 25.7 | 0.00 | 0.00 | 0.00 | 23 | 1018.9 |
| 20260904175007 | 28 | 264 | 9.7 | 25.7 | 0.00 | 0.00 | 0.00 | 23 | 1018.9 |
| 20260904174506 | 27 | 261 | 6.4 | 14.5 | 0.00 | 0.00 | 0.00 | 23 | 1019.0 |
| 20260904174504 | 27 | 261 | 6.4 | 14.5 | 0.00 | 0.00 | 0.00 | 23 | 1002.0 |
| 20260904173506 | 27 | 244 | 8.0 | 16.1 | 0.00 | 0.00 | 0.00 | 23 | 1019.0 |
| 20260904173003 | 27 | 292 | 3.2 | 17.7 | 0.00 | 0.00 | 0.00 | 22 | 1002.1 |
| 20260904172505 | 27 | 255 | 8.0 | 20.9 | 0.00 | 0.00 | 0.00 | 22 | 1019.0 |
| 20260904171505 | 27 | 302 | 6.4 | 16.1 | 0.00 | 0.00 | 0.00 | 23 | 1019.0 |
| 20260904171503 | 27 | 302 | 6.4 | 16.1 | 0.00 | 0.00 | 0.00 | 23 | 1002.1 |
| 20260904171007 | 27 | 241 | 6.4 | 20.9 | 0.00 | 0.00 | 0.00 | 25 | 1019.0 |
| 20260904170505 | 27 | 202 | 6.4 | 20.9 | 0.00 | 0.00 | 0.00 | 23 | 1019.0 |
| 20260904170007 | 27 | 281 | 9.7 | 12.9 | 0.00 | 0.00 | 0.00 | 24 | 1019.0 |
| 20260904170004 | 27 | 281 | 8.0 | 12.9 | 0.00 | 0.00 | 0.00 | 24 | 1002.2 |
| 20260904165505 | 27 | 306 | 4.8 | 12.9 | 0.00 | 0.00 | 0.00 | 24 | 1018.9 |
| 20260904164506 | 26 | 246 | 8.0 | 22.5 | 0.00 | 0.00 | 0.00 | 25 | 1019.0 |
| 20260904164006 | 27 | 244 | 9.7 | 22.5 | 0.00 | 0.00 | 0.00 | 25 | 1019.0 |
| 20260904163504 | 26 | 223 | 6.4 | 11.3 | 0.00 | 0.00 | 0.00 | 24 | 1019.0 |
| 20260904163007 | 26 | 296 | 6.4 | 17.7 | 0.00 | 0.00 | 0.00 | 24 | 1019.0 |
| 20260904163003 | 26 | 296 | 4.8 | 17.7 | 0.00 | 0.00 | 0.00 | 24 | 1002.2 |
| 20260904162511 | 26 | 223 | 9.7 | 19.3 | 0.00 | 0.00 | 0.00 | 24 | 1018.9 |
| 20260904161504 | 26 | 248 | 4.8 | 17.7 | 0.00 | 0.00 | 0.00 | 24 | 1002.0 |
| 20260904161006 | 26 | 251 | 9.7 | 17.7 | 0.00 | 0.00 | 0.00 | 24 | 1018.8 |
| 20260904160505 | 26 | 277 | 6.4 | 14.5 | 0.00 | 0.00 | 0.00 | 24 | 1018.8 |
| 20260904160007 | 26 | 240 | 3.2 | 14.5 | 0.00 | 0.00 | 0.00 | 24 | 1002.0 |
| 20260904155506 | 26 | 249 | 4.8 | 14.5 | 0.00 | 0.00 | 0.00 | 25 | 1018.8 |
| 20260904155006 | 25 | 306 | 4.8 | 12.9 | 0.00 | 0.00 | 0.00 | 25 | 1018.8 |
| 20260904154505 | 25 | 224 | 4.8 | 14.5 | 0.00 | 0.00 | 0.00 | 24 | 1018.8 |
| 20260904154503 | 25 | 224 | 4.8 | 14.5 | 0.00 | 0.00 | 0.00 | 24 | 1002.0 |
| 20260904154006 | 25 | 298 | 4.8 | 14.5 | 0.00 | 0.00 | 0.00 | 25 | 1018.8 |
| 20260904153506 | 25 | 261 | 4.8 | 14.5 | 0.00 | 0.00 | 0.00 | 25 | 1018.8 |
| 20260904153007 | 25 | 269 | 3.2 | 14.5 | 0.00 | 0.00 | 0.00 | 26 | 1018.9 |
| 20260904153004 | 25 | 269 | 3.2 | 14.5 | 0.00 | 0.00 | 0.00 | 26 | 1002.1 |
| 20260904152007 | 24 | 278 | 1.6 | 11.3 | 0.00 | 0.00 | 0.00 | 31 | 1018.9 |
| 20260904151507 | 23 | 255 | 4.8 | 11.3 | 0.00 | 0.00 | 0.00 | 30 | 1018.9 |
| 20260904151503 | 23 | 255 | 3.2 | 11.3 | 0.00 | 0.00 | 0.00 | 30 | 1002.1 |
| 20260904151006 | 22 | 234 | 4.8 | 8.0 | 0.00 | 0.00 | 0.00 | 31 | 1018.9 |
| 20260904150506 | 22 | 244 | 3.2 | 8.0 | 0.00 | 0.00 | 0.00 | 33 | 1018.8 |
| 20260904150011 | 22 | 254 | 3.2 | 12.9 | 0.00 | 0.00 | 0.00 | 32 | 1002.0 |
| 20260904150006 | 22 | 254 | 3.2 | 12.9 | 0.00 | 0.00 | 0.00 | 32 | 1018.8 |
| 20260904145507 | 22 | 271 | 6.4 | 12.9 | 0.00 | 0.00 | 0.00 | 31 | 1018.9 |
| 20260904145006 | 22 | 244 | 4.8 | 9.7 | 0.00 | 0.00 | 0.00 | 32 | 1019.0 |
| 20260904144506 | 21 | 246 | 3.2 | 9.7 | 0.00 | 0.00 | 0.00 | 33 | 1018.8 |
| 20260904144504 | 21 | 246 | 3.2 | 9.7 | 0.00 | 0.00 | 0.00 | 33 | 1002.1 |
| 20260904144006 | 21 | 213 | 3.2 | 8.0 | 0.00 | 0.00 | 0.00 | 33 | 1018.9 |
| 20260904143505 | 21 | 236 | 4.8 | 8.0 | 0.00 | 0.00 | 0.00 | 33 | 1018.8 |
| 20260904143006 | 21 | 261 | 4.8 | 6.4 | 0.00 | 0.00 | 0.00 | 34 | 1018.8 |
| 20260904143004 | 21 | 261 | 3.2 | 6.4 | 0.00 | 0.00 | 0.00 | 34 | 1002.1 |
| 20260904142505 | 21 | 55 | 3.2 | 4.8 | 0.00 | 0.00 | 0.00 | 33 | 1018.9 |
| 20260904142007 | 21 | 55 | 3.2 | 4.8 | 0.00 | 0.00 | 0.00 | 33 | 1018.9 |
| 20260904141505 | 21 | 205 | 0.0 | 1.6 | 0.00 | 0.00 | 0.00 | 34 | 1018.8 |
| 20260904140506 | 19 | 163 | 1.6 | 3.2 | 0.00 | 0.00 | 0.00 | 36 | 1018.6 |
| 20260904140008 | 19 | 163 | 0.0 | 3.2 | 0.00 | 0.00 | 0.00 | 37 | 1018.5 |
| 20260904140005 | 19 | 163 | 0.0 | 3.2 | 0.00 | 0.00 | 0.00 | 37 | 1001.8 |
| 20260904135505 | 18 | 163 | 1.6 | 3.2 | 0.00 | 0.00 | 0.00 | 38 | 1018.5 |
| 20260904135007 | 17 | 163 | 0.0 | 4.8 | 0.00 | 0.00 | 0.00 | 42 | 1018.5 |
| 20260904134507 | 17 | 163 | 0.0 | 4.8 | 0.00 | 0.00 | 0.00 | 43 | 1018.4 |
| 20260904134505 | 17 | 163 | 0.0 | 4.8 | 0.00 | 0.00 | 0.00 | 43 | 1001.7 |
| 20260904133504 | 17 | 163 | 3.2 | 4.8 | 0.00 | 0.00 | 0.00 | 44 | 1018.2 |
| 20260904133008 | 16 | 163 | 3.2 | 8.0 | 0.00 | 0.00 | 0.00 | 42 | 1018.2 |
| 20260904133006 | 16 | 163 | 1.6 | 8.0 | 0.00 | 0.00 | 0.00 | 42 | 1001.5 |
| 20260904132505 | 16 | 163 | 6.4 | 8.0 | 0.00 | 0.00 | 0.00 | 42 | 1018.0 |
| 20260904132007 | 16 | 225 | 3.2 | 4.8 | 0.00 | 0.00 | 0.00 | 41 | 1018.0 |
| 20260904131506 | 15 | 225 | 1.6 | 4.8 | 0.00 | 0.00 | 0.00 | 42 | 1017.9 |
| 20260904131503 | 15 | 225 | 0.0 | 4.8 | 0.00 | 0.00 | 0.00 | 42 | 1001.2 |
| 20260904131006 | 15 | 225 | 3.2 | 4.8 | 0.00 | 0.00 | 0.00 | 42 | 1017.8 |
| 20260904130004 | 13 | 105 | 3.2 | 4.8 | 0.00 | 0.00 | 0.00 | 45 | 1001.1 |
| 20260904125506 | 13 | 105 | 0.0 | 6.4 | 0.00 | 0.00 | 0.00 | 45 | 1017.7 |
| 20260904124504 | 14 | 105 | 3.2 | 6.4 | 0.00 | 0.00 | 0.00 | 44 | 1000.9 |
| 20260904124006 | 14 | 159 | 3.2 | 8.0 | 0.00 | 0.00 | 0.00 | 43 | 1017.4 |
| 20260904123505 | 15 | 159 | 4.8 | 8.0 | 0.00 | 0.00 | 0.00 | 42 | 1017.4 |
| 20260904123006 | 15 | 262 | 1.6 | 4.8 | 0.00 | 0.00 | 0.00 | 42 | 1017.3 |
| 20260904123004 | 15 | 262 | 1.6 | 4.8 | 0.00 | 0.00 | 0.00 | 42 | 1000.6 |
| 20260904122507 | 15 | 262 | 3.2 | 4.8 | 0.00 | 0.00 | 0.00 | 41 | 1017.2 |
| 20260904122007 | 15 | 262 | 1.6 | 6.4 | 0.00 | 0.00 | 0.00 | 40 | 1017.0 |
| 20260904121505 | 15 | 262 | 3.2 | 11.3 | 0.00 | 0.00 | 0.00 | 40 | 1016.9 |
| 20260904121006 | 15 | 254 | 6.4 | 11.3 | 0.00 | 0.00 | 0.00 | 41 | 1016.9 |
| 20260904120008 | 15 | 259 | 4.8 | 9.7 | 0.00 | 0.00 | 0.00 | 41 | 1016.8 |
| 20260904120005 | 15 | 259 | 4.8 | 9.7 | 0.00 | 0.00 | 0.00 | 41 | 1000.1 |
| 20260904114505 | 15 | 259 | 4.8 | 6.4 | 0.00 | 0.00 | 0.00 | 43 | 1016.9 |
| 20260904114006 | 15 | 236 | 3.2 | 9.7 | 0.00 | 0.00 | 0.00 | 43 | 1016.8 |
| 20260904113004 | 15 | 225 | 6.4 | 12.9 | 0.00 | 0.00 | 0.00 | 42 | 1000.1 |
| 20260904112505 | 15 | 232 | 6.4 | 11.3 | 0.00 | 0.00 | 0.00 | 42 | 1016.7 |
| 20260904112006 | 15 | 232 | 6.4 | 11.3 | 0.00 | 0.00 | 0.00 | 42 | 1016.7 |
| 20260904111505 | 15 | 235 | 4.8 | 11.3 | 0.00 | 0.00 | 0.00 | 42 | 1016.7 |
| 20260904111503 | 15 | 235 | 4.8 | 11.3 | 0.00 | 0.00 | 0.00 | 42 | 1000.1 |
| 20260904111006 | 16 | 232 | 4.8 | 9.7 | 0.00 | 0.00 | 0.00 | 42 | 1016.7 |
| 20260904110505 | 15 | 292 | 3.2 | 11.3 | 0.00 | 0.00 | 0.00 | 43 | 1016.7 |
| 20260904110007 | 15 | 291 | 4.8 | 11.3 | 0.00 | 0.00 | 0.00 | 43 | 1016.7 |
| 20260904110004 | 15 | 291 | 4.8 | 11.3 | 0.00 | 0.00 | 0.00 | 43 | 1000.1 |
| 20260904105506 | 15 | 294 | 3.2 | 6.4 | 0.00 | 0.00 | 0.00 | 46 | 1016.7 |
| 20260904104505 | 15 | 219 | 3.2 | 6.4 | 0.00 | 0.00 | 0.00 | 45 | 1016.6 |
| 20260904103959 | 15 | 219 | 1.6 | 4.8 | 0.00 | 0.00 | 0.00 | 46 | 1016.4 |
| 20260904103506 | 15 | 219 | 0.0 | 4.8 | 0.00 | 0.00 | 0.00 | 47 | 1016.4 |
| 20260904103005 | 15 | 219 | 0.0 | 6.4 | 0.00 | 0.00 | 0.00 | 48 | 999.6 |
| 20260904102005 | 15 | 219 | 1.6 | 4.8 | 0.00 | 0.00 | 0.00 | 49 | 1016.1 |
| 20260904101505 | 15 | 219 | 1.6 | 4.8 | 0.00 | 0.00 | 0.00 | 49 | 1016.0 |
| 20260904101503 | 15 | 219 | 0.0 | 4.8 | 0.00 | 0.00 | 0.00 | 49 | 999.3 |
| 20260904101006 | 15 | 219 | 1.6 | 4.8 | 0.00 | 0.00 | 0.00 | 50 | 1016.0 |
| 20260904100505 | 15 | 219 | 1.6 | 6.4 | 0.00 | 0.00 | 0.00 | 50 | 1015.9 |
| 20260904100006 | 15 | 219 | 3.2 | 6.4 | 0.00 | 0.00 | 0.00 | 50 | 1015.8 |
| 20260904100004 | 15 | 219 | 3.2 | 6.4 | 0.00 | 0.00 | 0.00 | 50 | 999.2 |
| 20260904095504 | 15 | 173 | 1.6 | 4.8 | 0.00 | 0.00 | 0.00 | 50 | 1015.8 |
| 20260904095007 | 16 | 216 | 1.6 | 6.4 | 0.00 | 0.00 | 0.00 | 51 | 1015.8 |
| 20260904094505 | 16 | 226 | 1.6 | 6.4 | 0.00 | 0.00 | 0.00 | 51 | 1015.8 |
| 20260904094006 | 16 | 220 | 3.2 | 6.4 | 0.00 | 0.00 | 0.00 | 51 | 1015.8 |
| 20260904093505 | 16 | 223 | 3.2 | 8.0 | 0.00 | 0.00 | 0.00 | 53 | 1015.8 |
| 20260904093008 | 16 | 226 | 3.2 | 9.7 | 0.00 | 0.00 | 0.00 | 55 | 1015.7 |
| 20260904093004 | 16 | 226 | 3.2 | 9.7 | 0.00 | 0.00 | 0.00 | 55 | 999.0 |
| 20260904092505 | 15 | 217 | 1.6 | 9.7 | 0.00 | 0.00 | 0.00 | 56 | 1015.7 |
| 20260904092006 | 15 | 209 | 1.6 | 8.0 | 0.00 | 0.00 | 0.00 | 57 | 1015.6 |
| 20260904091505 | 15 | 206 | 3.2 | 4.8 | 0.00 | 0.00 | 0.00 | 58 | 1015.6 |
| 20260904091006 | 15 | 207 | 3.2 | 8.0 | 0.00 | 0.00 | 0.00 | 58 | 1015.5 |
| 20260904090505 | 15 | 207 | 4.8 | 9.7 | 0.00 | 0.00 | 0.00 | 58 | 1015.5 |
| 20260904090007 | 15 | 216 | 3.2 | 9.7 | 0.00 | 0.00 | 0.00 | 58 | 1015.4 |
| 20260904090005 | 15 | 216 | 3.2 | 9.7 | 0.00 | 0.00 | 0.00 | 58 | 998.7 |
| 20260904085007 | 16 | 188 | 0.0 | 4.8 | 0.00 | 0.00 | 0.00 | 57 | 1015.5 |
| 20260904084505 | 16 | 188 | 3.2 | 4.8 | 0.00 | 0.00 | 0.00 | 56 | 1015.4 |
| 20260904084007 | 16 | 188 | 3.2 | 6.4 | 0.00 | 0.00 | 0.00 | 55 | 1015.5 |
| 20260904083505 | 17 | 188 | 1.6 | 9.7 | 0.00 | 0.00 | 0.00 | 54 | 1015.6 |
| 20260904083006 | 17 | 174 | 6.4 | 9.7 | 0.00 | 0.00 | 0.00 | 54 | 1015.5 |
| 20260904083003 | 17 | 174 | 4.8 | 9.7 | 0.00 | 0.00 | 0.00 | 54 | 998.8 |
| 20260904082505 | 17 | 175 | 4.8 | 9.7 | 0.00 | 0.00 | 0.00 | 54 | 1015.5 |
| 20260904082006 | 17 | 190 | 4.8 | 6.4 | 0.00 | 0.00 | 0.00 | 54 | 1015.6 |
| 20260904081507 | 17 | 192 | 1.6 | 8.0 | 0.00 | 0.00 | 0.00 | 53 | 998.9 |
| 20260904080505 | 17 | 175 | 3.2 | 8.0 | 0.00 | 0.00 | 0.00 | 52 | 1015.7 |
| 20260904080004 | 17 | 161 | 1.6 | 9.7 | 0.00 | 0.00 | 0.00 | 53 | 999.0 |
| 20260904075504 | 17 | 163 | 4.8 | 9.7 | 0.00 | 0.00 | 0.00 | 53 | 1015.7 |
| 20260904075006 | 17 | 178 | 3.2 | 9.7 | 0.00 | 0.00 | 0.00 | 52 | 1015.7 |
| 20260904074506 | 17 | 202 | 4.8 | 8.0 | 0.00 | 0.00 | 0.00 | 51 | 1015.8 |
| 20260904074503 | 17 | 202 | 4.8 | 8.0 | 0.00 | 0.00 | 0.00 | 51 | 999.2 |
| 20260904074006 | 18 | 204 | 3.2 | 9.7 | 0.00 | 0.00 | 0.00 | 49 | 1015.9 |
| 20260904073505 | 18 | 204 | 4.8 | 14.5 | 0.00 | 0.00 | 0.00 | 49 | 1015.9 |
| 20260904073008 | 19 | 178 | 8.0 | 14.5 | 0.00 | 0.00 | 0.00 | 48 | 999.3 |
| 20260904072505 | 20 | 142 | 9.7 | 22.5 | 0.00 | 0.00 | 0.00 | 46 | 1016.0 |
| 20260904072007 | 20 | 178 | 14.5 | 27.4 | 0.00 | 0.00 | 0.00 | 46 | 1015.9 |
| 20260904071507 | 20 | 157 | 17.7 | 27.4 | 0.00 | 0.00 | 0.00 | 46 | 1015.7 |
| 20260904071504 | 20 | 157 | 16.1 | 27.4 | 0.00 | 0.00 | 0.00 | 46 | 999.1 |
| 20260904071007 | 20 | 158 | 17.7 | 24.1 | 0.00 | 0.00 | 0.00 | 46 | 1015.8 |
| 20260904070008 | 20 | 163 | 14.5 | 24.1 | 0.00 | 0.00 | 0.00 | 45 | 1015.8 |
| 20260904070005 | 20 | 163 | 12.9 | 24.1 | 0.00 | 0.00 | 0.00 | 45 | 999.2 |
| 20260904065507 | 20 | 153 | 14.5 | 22.5 | 0.00 | 0.00 | 0.00 | 45 | 1015.9 |
| 20260904065007 | 20 | 169 | 16.1 | 22.5 | 0.00 | 0.00 | 0.00 | 45 | 1015.9 |
| 20260904064505 | 20 | 158 | 12.9 | 22.5 | 0.00 | 0.00 | 0.00 | 45 | 1015.9 |
| 20260904064502 | 20 | 158 | 12.9 | 22.5 | 0.00 | 0.00 | 0.00 | 45 | 999.4 |
| 20260904064006 | 20 | 166 | 14.5 | 25.7 | 0.00 | 0.00 | 0.00 | 44 | 1015.9 |
| 20260904063508 | 20 | 154 | 16.1 | 25.7 | 0.00 | 0.00 | 0.00 | 44 | 1015.9 |
| 20260904063007 | 20 | 159 | 12.9 | 22.5 | 0.00 | 0.00 | 0.00 | 43 | 1015.9 |
| 20260904063004 | 20 | 159 | 12.9 | 22.5 | 0.00 | 0.00 | 0.00 | 43 | 999.4 |
| 20260904062505 | 21 | 168 | 12.9 | 22.5 | 0.00 | 0.00 | 0.00 | 43 | 1015.9 |
| 20260904062007 | 21 | 168 | 14.5 | 25.7 | 0.00 | 0.00 | 0.00 | 42 | 1015.9 |
| 20260904061509 | 21 | 150 | 14.5 | 25.7 | 0.00 | 0.00 | 0.00 | 42 | 999.5 |
| 20260904061506 | 21 | 150 | 14.5 | 25.7 | 0.00 | 0.00 | 0.00 | 42 | 1016.0 |
| 20260904060007 | 21 | 158 | 17.7 | 27.4 | 0.00 | 0.00 | 0.00 | 40 | 1015.9 |
| 20260904060004 | 21 | 158 | 17.7 | 27.4 | 0.00 | 0.00 | 0.00 | 40 | 999.5 |
| 20260904055504 | 21 | 148 | 16.1 | 27.4 | 0.00 | 0.00 | 0.00 | 40 | 1016.0 |
| 20260904055005 | 21 | 164 | 19.3 | 27.4 | 0.00 | 0.00 | 0.00 | 40 | 1016.0 |
| 20260904054506 | 21 | 174 | 17.7 | 27.4 | 0.00 | 0.00 | 0.00 | 39 | 999.6 |
| 20260904054504 | 21 | 174 | 17.7 | 27.4 | 0.00 | 0.00 | 0.00 | 39 | 1016.0 |
| 20260904054005 | 21 | 149 | 19.3 | 29.0 | 0.00 | 0.00 | 0.00 | 39 | 1016.0 |
| 20260904053504 | 21 | 151 | 16.1 | 27.4 | 0.00 | 0.00 | 0.00 | 39 | 1016.0 |
| 20260904053005 | 21 | 147 | 17.7 | 27.4 | 0.00 | 0.00 | 0.00 | 39 | 1016.0 |
| 20260904053002 | 21 | 169 | 17.7 | 27.4 | 0.00 | 0.00 | 0.00 | 39 | 999.6 |
| 20260904052505 | 21 | 163 | 17.7 | 25.7 | 0.00 | 0.00 | 0.00 | 38 | 1016.0 |
| 20260904052005 | 21 | 141 | 19.3 | 30.6 | 0.00 | 0.00 | 0.00 | 38 | 1016.0 |
| 20260904051504 | 22 | 157 | 19.3 | 30.6 | 0.00 | 0.00 | 0.00 | 37 | 1016.0 |
| 20260904051502 | 22 | 157 | 19.3 | 30.6 | 0.00 | 0.00 | 0.00 | 37 | 999.7 |
| 20260904051004 | 22 | 174 | 20.9 | 27.4 | 0.00 | 0.00 | 0.00 | 37 | 1016.0 |
| 20260904050006 | 22 | 174 | 19.3 | 29.0 | 0.00 | 0.00 | 0.00 | 36 | 1016.0 |
| 20260904050003 | 22 | 174 | 19.3 | 29.0 | 0.00 | 0.00 | 0.00 | 36 | 999.8 |
| 20260904045004 | 22 | 163 | 20.9 | 29.0 | 0.00 | 0.00 | 0.00 | 36 | 1016.0 |
| 20260904044504 | 22 | 171 | 20.9 | 29.0 | 0.00 | 0.00 | 0.00 | 36 | 1016.1 |
| 20260904044005 | 22 | 175 | 16.1 | 27.4 | 0.00 | 0.00 | 0.00 | 36 | 1016.1 |
| 20260904043504 | 22 | 143 | 19.3 | 30.6 | 0.00 | 0.00 | 0.00 | 36 | 1016.1 |
| 20260904043004 | 22 | 155 | 20.9 | 37.0 | 0.00 | 0.00 | 0.00 | 36 | 1016.2 |
| 20260904043002 | 22 | 155 | 19.3 | 37.0 | 0.00 | 0.00 | 0.00 | 36 | 1000.0 |